Location: Newark
(49.8969°N, 3.3422°E)
Time: 18:51:10
(UTC+00:00)

A-11 Canister half - Pass Details

Date: 02 February 2020
Orbit: 1517 x 1683 km, 47.2° (Epoch: 17 February)

Event Time Altitude Azimuth Distance (km) Brightness Sun altitude
Rises 01:50:54 0° 281° (W) 4,712 - -50.3°
Reaches altitude 10° 01:54:01 10° 278° (W) 3,713 - -49.9°
Maximum altitude 02:03:09 63° 200° (SSW) 1,664 - -48.9°
Exits shadow 02:11:25 13° 123° (ESE) 3,428 10.9 -47.9°
Drops below altitude 10° 02:12:13 10° 122° (ESE) 3,679 11.1 -47.8°
Sets 02:15:17 0° 120° (ESE) 4,668 11.7 -47.4°
